This demonstration page uses our WeatherBlox Daily Observations layout. Learn more.

Left ArrowRight Arrow

Hourly Observations for July 3, 2022

Temp ( °F °C ) Dew Point ( °F °C ) Humidity (%) Winds ( mph kmh ) Pressure ( in mb ) Visibility ( mi km ) Precip ( " mm )
12:53 am 00:53 Mostly Clear 71 21.7 62 16.7 73 73 Calm 30.05 1018 10 16 0.00 0.00
1:53 am 01:53 Cloudy with Light Rain 70 21.1 63 17.2 79 79 Calm 30.05 1018 10 16 0.00 0.00
2:53 am 02:53 Cloudy 70 21.1 63 17.2 79 79 Calm 30.04 1017 10 16 0.00 0.00
3:53 am 03:53 Cloudy 71 21.7 63 17.2 76 76 Calm 30.04 1017 10 16 0.00 0.00
4:53 am 04:53 Cloudy 69 20.6 62 16.7 78 78 Calm 30.06 1018 10 16 0.00 0.00
5:53 am 05:53 Mostly Cloudy 68 20 62 16.7 81 81 Calm 30.07 1018 10 16 0.00 0.00
6:53 am 06:53 Partly Cloudy 67 19.4 62 16.7 84 84 Calm 30.09 1019 10 16 0.00 0.00
7:53 am 07:53 Sunny 74 23.3 60 15.6 62 62 Calm 30.11 1020 10 16 0.00 0.00
8:53 am 08:53 Sunny 77 25 59 15 54 54 E 3 6 30.11 1020 10 16 0.00 0.00
9:53 am 09:53 Sunny 81 27.2 59 15 47 47 ENE 6 9 30.13 1020 10 16 0.00 0.00
10:53 am 10:53 Cloudy 82 27.8 59 15 46 46 VRB 3 6 30.14 1021 10 16 0.00 0.00
11:53 am 11:53 Mostly Cloudy 84 28.9 59 15 43 43 E 6 9 30.14 1021 10 16 0.00 0.00
12:53 pm 12:53 Sunny 85 29.4 56 13.3 37 37 ESE 5 7 30.13 1020 10 16 0.00 0.00
1:53 pm 13:53 Sunny 87 30.6 56 13.3 35 35 ESE 5 7 30.11 1020 10 16 0.00 0.00
2:53 pm 14:53 Sunny 89 31.7 54 12.2 30 30 VRB 3 6 30.10 1019 10 16 0.00 0.00
3:53 pm 15:53 Sunny 90 32.2 53 11.7 28 28 VRB 3 6 30.09 1019 10 16 0.00 0.00
4:53 pm 16:53 Sunny 90 32.2 53 11.7 28 28 VRB 5 7 30.08 1019 10 16 0.00 0.00
5:53 pm 17:53 Sunny 90 32.2 51 10.6 26 26 VRB 3 6 30.08 1019 10 16 0.00 0.00
6:53 pm 18:53 Sunny 89 31.7 54 12.2 30 30 ENE 3 6 30.08 1019 10 16 0.00 0.00
7:53 pm 19:53 Sunny 87 30.6 56 13.3 35 35 ENE 5 7 30.09 1019 10 16 0.00 0.00
8:53 pm 20:53 Sunny 75 23.9 62 16.7 64 64 ENE 3 6 30.10 1019 10 16 0.00 0.00
9:53 pm 21:53 Clear 71 21.7 60 15.6 68 68 Calm 30.10 1019 10 16 0.00 0.00
10:53 pm 22:53 Clear 69 20.6 61 16.1 76 76 Calm 30.12 1020 10 16 0.00 0.00
11:53 pm 23:53 Clear 67 19.4 61 16.1 81 81 Calm 30.13 1020 10 16 0.00 0.00

Powered by AerisWeather